Find Starlink 11388

NORAD ID: 62092 Int'l Des: 2024-220 Owner: SPXS Country: US Constellation: starlink operational
又名: STARLINK-11388 [DTC] celestrak
LEOCIRCULAR

当前视图

正在加载3D地球...

About Starlink 11388

Starlink 11388 (NORAD 62092) is a starlink constellation satellite (v2 mini d2c) launched Nov 25, 2024 by SPXS of US. It operates in LEO, CIRCULAR orbit with a mass of 960.00 kg.

即将过境

Passes for default location (London). Set your location on the main map for personalized predictions.

高度历史

Loading altitude history...

两行轨道根数

1 62092U 24220E 26237.06650987 .00160558 00000-0 12318-2 0 9992
2 62092 43.0005 108.2298 0002097 264.0792 95.9837 15.70819258101437
Epoch: Aug 25, 2026 • Age: 17 hours

当前状态

高度 357.3 km
远地点 / 近地点 N/A
速度 7.70 km/s
星下点 28.83°N, 112.69°W
发射日期 Nov 25, 2024
运行时间 1.7 years
类型 internet

技术详情

分类 Payload
质量 960.00 kg
干质量 910.00 kg
总质量 960.00 kg
长度 0.30 m
直径 4.10 m
跨度 29.00 m
形状 Box + pan
制造商 SPXS
平台类型 Starlink V2MD
阶段状态 In Orbit
所有者/国家 SPXS/US

Most Searched